Погода в Зимовники

Погода в Зимовники : погода сейчас, прогноз погоды и архив. Всё, что Вы хотите узнать о погоде в Зимовники!

Поиск расширенной информации на нашем сайте:

Другие новости

Новости СМИ2

Главная страница сайта

Новости сайта

03.07.2017

Напоминаем, что на нашем специализированном сайте Метеоцентр.Азия вы можете получить высокодетализированные автоматические прогнозы погоды по пунктам России, СНГ и мира в авиационном формате (включающие направление и скорость ветра, видимость, явления погоды, количество и форму облачности, нижнюю и верхнюю границу облачности).


Погода в Зимовники - сегодня

Время (UTC), дата Ветер
(°,м/с) 
Видим.   Явления Облачность Т
(°С)
Тd
(°С)
f(%) Тe
(°С)
Pmin
(гПа)
dP
(гПа)
Po
(мм)
O2
(г/м3)
Тmin Tmax R s Состояние
почвы
12 09.12.17 130 (ЮВ) 10 км    10/10 300 м 
[Sc]
+1.8 -0.3 86 +1  1021.9  -0.9  760  304           
15 09.12.17 170 (Ю) 4000 м  дымка  10/10 300 м 
[Sc]
+1.5 +0 90 +1  1021.6  -0.3  759  304    +1.9       
18 09.12.17 150 (ЮВ) 4000 м  дымка  10/10 300 м 
[Sc]
+2.3 +1.4 94 +2  1021.2  -0.4  759  303           
21 09.12.17 160 (Ю) 4000 м  дымка  10/10 300 м 
[Sc]
+2.5 +1.5 93 +2  1021.3  0.2  759  303           
00 10.12.17 160 (Ю) 4000 м  дымка  10/0 средняя, верхняя 
[Ac trans|Ci fib]
+1.1 +0.2 94 1021.4  759  305           
03 10.12.17 160 (Ю) 4000 м  дымка  6/0 средняя, верхняя 
[Ac trans|Ci fib]
+0.8 -0.4 92 -1  1021.2  -0.2  759  305  +0.5         
06 10.12.17 160 (Ю) 10 км    3/0 верхняя 
[Ci fib]
+2 -0.1 86 +1  1021.1  -0.1  759  304           
09 10.12.17 170 (Ю) 10 км    ясно 
+7.3 +1.4 66 +7  1020.4  -0.5  759  298           
12 10.12.17 150 (ЮВ) 3{10}  10 км    ясно 
+8.3 +1 60 +8  1018.6  -1.7  757  296           
15 10.12.17 150 (ЮВ) 5-10{10}  10 км    ясно 
+4.4 +2.1 85 +2  1018.1  -0.7  757  300    +8.7       
18 10.12.17 140 (ЮВ) 3{13}  4000 м  дымка  4/0 средняя 
[Ac trans]
+2.3 +1.4 94 +1  1017.6  -0.6  756  302           
21 10.12.17 140 (ЮВ) 5{11}  10 км    9/0 средняя 
[Ac trans]
+4.4 +2.3 86 +2  1016.7  -0.8  756  299           
00 11.12.17 170 (Ю) 3{11}  10 км    10/0 средняя 
[Ac und]
+4.1 +2.4 89 +3  1017.1  0.3  756  300           
03 11.12.17 200 (Ю) 4000 м  дымка{ливн. осадки}  10/10 300 м 
[Sc]
+4.1 +3.2 94 +3  1019.5  2.4  758  300  +2.3    0.5     
06 11.12.17 250 (З) 10 км  {ливн. осадки}  9/4 300 м средняя, верхняя 
[Sc|Ac trans|Ci fib]
+3.8 +2.3 90 +3  1022.5  760  302  +3.7         
09 11.12.17 250 (З) 5{10}  10 км    6/0 средняя, верхняя 
[Ac trans|Ci fib]
+4.5 -1.7 64 +2  1024.3  1.8  761  302           
12 11.12.17 240 (ЮЗ) 3{11}  10 км    4/0 верхняя 
[Ci fib]
+5 -3.1 56 +4  1025.1  0.8  762  302           
15 11.12.17 170 (Ю) 10 км    10/0 средняя 
[Ac und]
+0.1 -2.6 82 +1  1027.1  1.8  763  308    +5.6       
18 11.12.17 170 (Ю) 10 км    10/0 средняя 
[Ac und]
+1.3 -1.8 80 +2  1026.8  -0.2  763  306           
21 11.12.17 170 (Ю) 10 км    10/0 средняя 
[Ac und]
+2.1 -0.9 81 +1  1026.3  -0.5  763  305           
00 12.12.17 160 (Ю) 10 км    10/0 средняя 
[Ac und]
+2.5 -0.1 83 +2  1026.4  0.1  763  305           
03 12.12.17 160 (Ю) 10 км  в посл. час ливневой дождь  10/3 600 м кучево-дожд., средняя 
[Cb cap|Ac und]
+3.3 +1.7 89 +3  1025.6  -0.8  762  303  +0.1    0.3     
06 12.12.17 160 (Ю) 10 км  в посл. час ливневой дождь  10/10 300 м 
[Sc]
+3.7 +2 89 +2  1024.8  -0.7  762  303           
09 12.12.17 170 (Ю) 10 км  слаб. дождь  10/10 300 м 
[Frnb|Ns]
+5.3 +3.3 87 +5  1024.5  -0.3  762  301           
12 12.12.17 160 (Ю) 10 км  {дождь}  10/10 300 м 
[Sc]
+6.1 +3.4 83 +6  1023.3  -1.1  761  299           
Время (UTC), дата Ветер
(°,м/с) 
Видим.   Явления Облачность Т
(°С)
Тd
(°С)
f(%) Тe
(°С)
Pmin
(гПа)
dP
(гПа)
Po
(мм)
O2
(г/м3)
Тmin Tmax R s Состояние
почвы

Для получения пояснительной информации подведите курсор к названию столбца.

ПОГОДА в Зимовники - архив

Всё, что Вы хотите узнать о погоде в Зимовники - удобно и подробно!

Выберите нужную дату (начиная с 1 января 2015* года) и нажмите кнопку "Найти".
Будут отображены архивные сводки погоды по пункту Зимовники, начиная с указанной даты.


Отображать данные в формате CSV (для использования в таблицах Excel)


Внимание! Наш архив погоды предназначен исключительно для личного некоммерческого использования в познавательных целях. Если Вам необходимы официальные справки о состоянии погоды (для производственных, юридических, коммерческих и т.п. целей), обращайтесь в органы Росгидромета.

*Примечание: данная дата относится к архиву по метеостанциям СССР (Россия, СНГ, Балтия).
Архив по метеостанциям Зарубежной Европы и Азии (кроме Китая) хранится 10 дней, по другим регионам земного шара (Китай, Африка, Америка, Австралия, Океания) - 1 день.

Зимовники - район местоположения метеостанции


Название, широта, долгота, высота метеостанции:
Зимовники 47.2°ш. 42.5°д. 72 м над ур. моря [Российская Федерация]

Дополнительная информация

В oтличие oт бoльшинства пoгoдных сайтoв мы публикуем пoдрoбную метеoинфoрмацию в детальнoм прoфессиoнальнoм фoрмате.

Характеристики температуры и влажнoсти вoздуха измеряются на высoте 2 м в тени вдали oт зданий и деревьев.
Скoрoсть ветра измеряется на высoте 10 м (на урoвне рoста челoвека скoрoсть ветра ниже в 1.5-2 раза). Если метеoстанция нахoдится в гoрoде или в лесу, тo скoрoсть ветра занижена на 2-4 м/с пo сравнению с oткрытым местoм. Скoрoсть ветра над акватoриями крупных рек и oзёр, а также на вершинах хoлмoв на 2-5 м/с выше, чем в oбычных услoвиях.
Атмoсфернoе давление в разных тoчках местнoсти мoжет значительнo oтличаться oт давления на метеoстанции, в зависимoсти oт услoвий рельефа (при пoдъёме на 10 м давление пoнижается примернo на 1 мм рт.ст.).